Location: Newark
(50.4348°N, 30.5552°E)
Time: 06:40:01
(UTC+00:00)

Transit 2A Rocket - Pass Details

Date: 31 January 2020
Orbit: 591 x 912 km, 66.7° (Epoch: 27 February)

Event Time Altitude Azimuth Distance (km) Brightness Sun altitude
Exits shadow 03:27:17 31° 334° (NNW) 1,064 5.5 -20.4°
Drops below altitude 10° 03:30:50 10° 25° (NNE) 2,001 7.4 -19.8°
Sets 03:33:23 0° 35° (NE) 2,951 8.5 -19.4°
